Language selection

My Weather Profile Weather Topics  | 

Atlantic - Newfoundland: Past 24 Hour Conditions

 

Banquereau - 44139

05:00 PM ADT 28 October 2021Buoy position: 44.27N 57.08W
Disclaimer

This table is a summary of hourly weather conditions for the past 24 hours.
Please note that these observations might not always be representative of weather conditions over their associated marine area.

Date / Time
(ADT)
Wind(knots) Wave height(m) Wave period(s) Pressure(kPa) Air tempC) Water tempC)
28 October 2021
17:00 ENE 33 gust 41 6.1 11.0 100.1 10 13
16:00 NE 33 N/A N/A 100.1 10 13
15:00 ENE 33 gust 41 6.2 11.0 100.1 10 13
14:00 ENE 33 gust 41 6.4 11.0 100.1 10 13
13:00 ENE 31 gust 41 6.2 11.0 100.2 10 12
12:00 ENE 33 gust 45 6.6 11.0 100.2 10 12
11:00 ENE 33 gust 41 6.3 12.0 100.2 10 12
10:00 ENE 33 gust 45 6.6 12.0 100.2 10 12
9:00 ENE 33 gust 41 7.6 12.0 100.3 10 12
8:00 ENE 33 gust 43 7.0 12.0 100.2 10 12
7:00 ENE 35 gust 45 7.3 12.0 100.2 10 12
6:00 ENE 35 gust 43 7.2 11.0 100.2 10 12
5:00 N/A N/A N/A N/A N/A N/A
4:00 ENE 33 gust 39 6.6 12.0 100.3 10 12
3:00 ENE 31 gust 39 7.3 11.0 100.3 10 12
2:00 ENE 29 gust 37 6.7 10.0 100.3 10 12
1:00 ENE 33 gust 41 6.6 11.0 100.3 10 12
0:00 ENE 33 6.3 10.0 100.3 10 12
27 October 2021
23:00 ENE 37 gust 46 6.2 11.0 100.2 10 12
22:00 ENE 33 gust 41 6.0 10.0 100.5 10 12
21:00 ENE 35 gust 43 5.7 10.0 100.5 10 12
20:00 ENE 35 gust 45 6.0 10.0 100.6 10 12
19:00 ENE 31 gust 41 5.9 10.0 100.6 10 12
18:00 ENE 33 gust 41 5.7 10.0 100.6 11 12
17:00 ENE 31 gust 41 5.0 10.0 100.7 11 12

Zoom-in to make a selection

Map of Atlantic - Newfoundland marine weather areas Banquereau - 44139 East Chedabucto Bay - 44488 West Chedabucto Bay - 44489 Blanc-Sablon Airport Cap Whittle Chevery Natashquan Airport Heath Point Îles de la Madeleine Airport Miscou Island Eskasoni (First Nations) Grand Étang Ingonish Beach North Mountain St.Paul Island J.A. Douglas McCurdy Sydney Airport Charlottetown Airport East Point North Cape Argentia Bonavista Burgeo Cape Race Corner Brook Daniel's Harbour Englee Ferolle Point La Scie Port aux Basques Rocky Harbour Sagona Island St. Anthony Airport St. John's Int'l Airport St. Lawrence Stephenville Airport Twillingate Winterland Branch Hill Wreckhouse Grates Cove Pool's Island Marticot Island Long Pond Cartwright Airport Mary's Harbour
Legend:
buoy Buoy
land station Land Station

Atlantic - Newfoundland Area

Another Region

What we are doing

Date modified: